Weather History for Pinedale, WY

Change the Weather History Date:

Monday, May 27, 2013

  Actual Average (KBPI) Record (KBPI)
Temperature  
Mean Temperature 48 °F 49 °F  
Max Temperature 60 °F 65 °F 82 °F (2003)
Min Temperature 35 °F 33 °F 25 °F (2011)
Degree Days  
Heating Degree Days 18 16  
Month to date heating degree days 535  
Since 1 July heating degree days 10066  
Cooling Degree Days 0 0  
Month to date cooling degree days 0  
Year to date cooling degree days 0  
Moisture  
Dew Point 27 °F    
Average Humidity 44    
Maximum Humidity 87    
Minimum Humidity 19    
Precipitation  
Precipitation 0.00 in 0.03 in 0.23 in (1987)
Month to date precipitation 0.73  
Year to date precipitation 2.36  
Sea Level Pressure  
Sea Level Pressure 29.99 in    
Wind  
Wind Speed 8 mph (WNW)    
Max Wind Speed 18 mph    
Max Gust Speed 26 mph    
Visibility 10 miles    
Events Rain    
T = Trace of Precipitation, MM = Missing Value Source: NWS Daily Summary

Daily Weather History Graph

Daily Weather History Graph

Search for Another Location

Airport:

Trip Planner

Search our weather history database for the weather conditions in past years. The results will help you decide how hot, cold, wet, or windy it might be!

Date:

Astronomy

May. 27, 2013 Rise Set
Actual Time 5:46 AM MDT 8:47 PM MDT
Civil Twilight 5:12 AM MDT 9:21 PM MDT
Nautical Twilight 4:29 AM MDT 10:04 PM MDT
Astronomical Twilight 3:38 AM MDT 10:55 PM MDT
Moon 11:27 PM MDT (5/27) 8:28 AM MDT (5/27)
Length of Visible Light 16h 08m
Length of Day
15h 00m
Waning Gibbous, 90% of the Moon is Illuminated
May 27
Waning Gibbous
May 31
Last Quarter
Jun 8
New
Jun 16
First Quarter
Jun 23
Full

Hourly Weather History & Observations

Time (MDT) Temp. Windchill Dew Point Humidity Pressure Visibility Wind Dir Wind Speed Gust Speed Precip Events Conditions
12:15 AM 46.4 °F - 30.2 °F 53% 29.99 in 10.0 mi Calm Calm - N/A   Clear
12:35 AM 44.6 °F 41.4 °F 32.0 °F 61% 29.99 in 10.0 mi WNW 5.8 mph - N/A   Clear
12:55 AM 44.6 °F 40.7 °F 32.0 °F 61% 29.99 in 10.0 mi NW 6.9 mph - N/A   Scattered Clouds
1:15 AM 46.4 °F 42.4 °F 30.2 °F 53% 30.00 in 10.0 mi WNW 8.1 mph - N/A   Mostly Cloudy
1:35 AM 46.4 °F 41.1 °F 30.2 °F 53% 30.01 in 10.0 mi WNW 11.5 mph - N/A   Mostly Cloudy
1:55 AM 46.4 °F 43.5 °F 30.2 °F 53% 30.00 in 10.0 mi NW 5.8 mph - N/A   Mostly Cloudy
2:15 AM 44.6 °F 39.2 °F 32.0 °F 61% 30.00 in 10.0 mi WNW 10.4 mph - N/A   Scattered Clouds
2:35 AM 46.4 °F 39.5 °F 30.2 °F 53% 30.02 in 10.0 mi WNW 17.3 mph - N/A   Mostly Cloudy
2:55 AM 46.4 °F 41.1 °F 32.0 °F 57% 30.02 in 10.0 mi West 11.5 mph - N/A   Overcast
3:15 AM 50.0 °F - 32.0 °F 50% 30.03 in 10.0 mi West 16.1 mph 24.2 mph N/A   Overcast
3:35 AM 48.2 °F - 35.6 °F 62% 30.04 in 10.0 mi North 11.5 mph 23.0 mph N/A Rain Light Rain
3:55 AM 46.4 °F 41.9 °F 35.6 °F 66% 30.05 in 10.0 mi North 9.2 mph - N/A   Overcast
4:15 AM 46.4 °F 41.5 °F 35.6 °F 66% 30.03 in 10.0 mi North 10.4 mph - N/A   Overcast
4:35 AM 44.6 °F 40.7 °F 35.6 °F 71% 30.04 in 10.0 mi NNW 6.9 mph - N/A   Overcast
4:55 AM 42.8 °F 38.0 °F 35.6 °F 76% 30.04 in 10.0 mi NW 8.1 mph - N/A   Scattered Clouds
5:15 AM 41.0 °F 39.0 °F 35.6 °F 81% 30.03 in 10.0 mi NNW 3.5 mph - N/A   Mostly Cloudy
5:35 AM 41.0 °F 39.0 °F 33.8 °F 76% 30.03 in 10.0 mi West 3.5 mph - N/A   Mostly Cloudy
5:55 AM 37.4 °F 32.8 °F 32.0 °F 81% 30.02 in 10.0 mi West 5.8 mph - N/A   Mostly Cloudy
6:15 AM 35.6 °F 29.9 °F 32.0 °F 87% 30.02 in 10.0 mi WNW 6.9 mph - N/A   Scattered Clouds
6:35 AM 37.4 °F 32.1 °F 33.8 °F 87% 30.02 in 10.0 mi WNW 6.9 mph - N/A   Clear
6:55 AM 41.0 °F 35.8 °F 33.8 °F 76% 30.03 in 10.0 mi NW 8.1 mph - N/A   Clear
7:15 AM 42.8 °F 36.2 °F 33.8 °F 70% 30.03 in 10.0 mi NW 12.7 mph - N/A   Clear
7:35 AM 44.6 °F 39.2 °F 33.8 °F 66% 30.03 in 10.0 mi WNW 10.4 mph - N/A   Clear
7:55 AM 46.4 °F 43.5 °F 35.6 °F 66% 30.03 in 10.0 mi NW 5.8 mph - N/A   Clear
8:15 AM 48.2 °F - 35.6 °F 62% 30.03 in 10.0 mi NW 6.9 mph - N/A   Clear
8:35 AM 50.0 °F - 33.8 °F 54% 30.03 in 10.0 mi WNW 6.9 mph - N/A   Clear
8:55 AM 51.8 °F - 32.0 °F 47% 30.03 in 10.0 mi NW 6.9 mph - N/A   Scattered Clouds
9:15 AM 51.8 °F - 32.0 °F 47% 30.03 in 10.0 mi NW 6.9 mph - N/A   Scattered Clouds
9:35 AM 53.6 °F - 30.2 °F 41% 30.01 in 10.0 mi NW 11.5 mph 16.1 mph N/A   Scattered Clouds
9:55 AM 51.8 °F - 30.2 °F 44% 30.01 in 10.0 mi NW 4.6 mph - N/A   Mostly Cloudy
10:15 AM 53.6 °F - 30.2 °F 41% 30.01 in 10.0 mi WSW 5.8 mph - N/A   Scattered Clouds
10:35 AM 55.4 °F - 28.4 °F 36% 30.01 in 10.0 mi SW 10.4 mph 18.4 mph N/A   Scattered Clouds
10:55 AM 57.2 °F - 28.4 °F 33% 30.00 in 10.0 mi SW 9.2 mph 16.1 mph N/A   Mostly Cloudy
11:15 AM 55.4 °F - 26.6 °F 33% 30.00 in 10.0 mi SW 12.7 mph 17.3 mph N/A   Mostly Cloudy
11:35 AM 57.2 °F - 21.2 °F 25% 30.00 in 10.0 mi WSW 16.1 mph 20.7 mph N/A   Scattered Clouds
11:55 AM 55.4 °F - 19.4 °F 25% 30.00 in 10.0 mi West 10.4 mph 20.7 mph N/A   Scattered Clouds
12:15 PM 55.4 °F - 19.4 °F 25% 30.00 in 10.0 mi WSW 11.5 mph 17.3 mph N/A   Mostly Cloudy
12:35 PM 57.2 °F - 19.4 °F 23% 30.00 in 10.0 mi West 5.8 mph 23.0 mph N/A   Overcast
12:55 PM 59.0 °F - 21.2 °F 23% 29.99 in 10.0 mi West 9.2 mph 23.0 mph N/A   Scattered Clouds
1:15 PM 59.0 °F - 17.6 °F 20% 29.99 in 10.0 mi West 9.2 mph 26.5 mph N/A   Scattered Clouds
1:35 PM 59.0 °F - 15.8 °F 19% 29.98 in 10.0 mi West 15.0 mph 19.6 mph N/A   Scattered Clouds
1:55 PM 59.0 °F - 17.6 °F 20% 29.98 in 10.0 mi West 12.7 mph 23.0 mph N/A   Clear
2:15 PM 60.8 °F - 17.6 °F 19% 29.97 in 10.0 mi West 18.4 mph 24.2 mph N/A   Clear
2:35 PM 59.0 °F - 17.6 °F 20% 29.97 in 10.0 mi Calm Calm - N/A   Clear
2:55 PM 59.0 °F - 19.4 °F 22% 29.97 in 10.0 mi WNW 16.1 mph 24.2 mph N/A   Clear
3:15 PM 60.8 °F - 19.4 °F 20% 29.97 in 10.0 mi WSW 9.2 mph 23.0 mph N/A   Clear
3:35 PM 60.8 °F - 21.2 °F 22% 29.97 in 10.0 mi WNW 16.1 mph 21.9 mph N/A   Scattered Clouds
3:55 PM 60.8 °F - 19.4 °F 20% 29.96 in 10.0 mi West 12.7 mph 23.0 mph N/A   Scattered Clouds
4:15 PM 60.8 °F - 21.2 °F 22% 29.95 in 10.0 mi NW 10.4 mph 23.0 mph N/A   Clear
4:35 PM 60.8 °F - 19.4 °F 20% 29.95 in 10.0 mi WNW 6.9 mph 24.2 mph N/A   Clear
4:55 PM 60.8 °F - 17.6 °F 19% 29.95 in 10.0 mi West 13.8 mph 19.6 mph N/A   Clear
5:15 PM 60.8 °F - 19.4 °F 20% 29.95 in 10.0 mi West 9.2 mph - N/A   Clear
5:35 PM 60.8 °F - 21.2 °F 22% 29.94 in 10.0 mi NW 10.4 mph 19.6 mph N/A   Clear
5:55 PM 59.0 °F - 21.2 °F 23% 29.94 in 10.0 mi WNW 5.8 mph 21.9 mph N/A   Clear
6:15 PM 60.8 °F - 21.2 °F 22% 29.94 in 10.0 mi WNW 16.1 mph - N/A   Clear
6:35 PM 59.0 °F - 21.2 °F 23% 29.93 in 10.0 mi NW 16.1 mph 20.7 mph N/A   Clear
6:55 PM 57.2 °F - 21.2 °F 25% 29.93 in 10.0 mi WNW 13.8 mph - N/A   Clear
7:15 PM 55.4 °F - 23.0 °F 29% 29.93 in 10.0 mi NW 15.0 mph - N/A   Clear
7:35 PM 55.4 °F - 24.8 °F 31% 29.94 in 10.0 mi NW 13.8 mph - N/A   Clear
7:55 PM 53.6 °F - 24.8 °F 33% 29.94 in 10.0 mi NW 11.5 mph - N/A   Clear
8:15 PM 53.6 °F - 24.8 °F 33% 29.95 in 10.0 mi WNW 11.5 mph - N/A   Clear
8:35 PM 51.8 °F - 26.6 °F 38% 29.95 in 10.0 mi WNW 9.2 mph - N/A   Scattered Clouds
8:55 PM 51.8 °F - 26.6 °F 38% 29.95 in 10.0 mi NW 4.6 mph - N/A   Scattered Clouds
9:15 PM 50.0 °F - 28.4 °F 43% 29.95 in 10.0 mi NW 6.9 mph - N/A   Mostly Cloudy
9:35 PM 50.0 °F - 28.4 °F 43% 29.95 in 10.0 mi NW 4.6 mph - N/A   Mostly Cloudy
9:55 PM 48.2 °F - 30.2 °F 50% 29.96 in 10.0 mi Calm Calm - N/A   Scattered Clouds
10:15 PM 46.4 °F - 30.2 °F 53% 29.97 in 10.0 mi Calm Calm - N/A   Scattered Clouds
10:35 PM 46.4 °F 45.2 °F 30.2 °F 53% 29.97 in 10.0 mi WNW 3.5 mph - N/A   Scattered Clouds
10:55 PM 46.4 °F 45.2 °F 30.2 °F 53% 29.97 in 10.0 mi West 3.5 mph - N/A   Scattered Clouds
11:15 PM 44.6 °F 43.1 °F 30.2 °F 57% 29.96 in 10.0 mi West 3.5 mph - N/A   Scattered Clouds
11:35 PM 46.4 °F 44.3 °F 30.2 °F 53% 29.96 in 10.0 mi WSW 4.6 mph - N/A   Mostly Cloudy
11:55 PM 48.2 °F - 26.6 °F 43% 29.97 in 10.0 mi WSW 4.6 mph - N/A   Overcast